| time (UTC) | temp F | wind direction | speed knots | gust knots | rain 1hr in | rain 24hr in | rain mn in | humidity % | barometer mb |
| 20260902172408 | 81 | 262 | 2.6 | 2.6 | 0.00 | 0.00 | 0.00 | 74 | 1014.8 |
| 20260902171908 | 81 | 249 | 2.6 | 5.2 | 0.00 | 0.00 | 0.00 | 74 | 1014.8 |
| 20260902171408 | 82 | 247 | 2.6 | 2.6 | 0.00 | 0.00 | 0.00 | 73 | 1014.8 |
| 20260902170409 | 82 | 239 | 2.6 | 2.6 | 0.00 | 0.00 | 0.00 | 75 | 1014.8 |
| 20260902165407 | 82 | 243 | 2.6 | 2.6 | 0.00 | 0.00 | 0.00 | 71 | 1015.0 |
| 20260902164909 | 82 | 234 | 2.6 | 2.6 | 0.00 | 0.00 | 0.00 | 70 | 1015.2 |
| 20260902163409 | 82 | 260 | 1.7 | 2.6 | 0.00 | 0.00 | 0.00 | 71 | 1015.4 |
| 20260902162909 | 82 | 268 | 2.6 | 2.6 | 0.00 | 0.00 | 0.00 | 71 | 1015.4 |
| 20260902162409 | 82 | 261 | 2.6 | 2.6 | 0.00 | 0.00 | 0.00 | 72 | 1015.5 |
| 20260902161908 | 82 | 259 | 2.6 | 2.6 | 0.00 | 0.00 | 0.00 | 71 | 1015.5 |
| 20260902161410 | 82 | 263 | 1.7 | 2.6 | 0.00 | 0.00 | 0.00 | 71 | 1015.5 |
| 20260902160909 | 81 | 254 | 0.9 | 2.6 | 0.00 | 0.00 | 0.00 | 72 | 1015.6 |
| 20260902160409 | 81 | 275 | 1.7 | 2.6 | 0.00 | 0.00 | 0.00 | 72 | 1015.6 |
| 20260902155908 | 81 | 247 | 1.7 | 5.2 | 0.00 | 0.00 | 0.00 | 73 | 1015.7 |
| 20260902155409 | 81 | 264 | 2.6 | 7.0 | 0.00 | 0.00 | 0.00 | 72 | 1015.8 |
| 20260902154909 | 82 | 258 | 2.6 | 6.1 | 0.00 | 0.00 | 0.00 | 70 | 1015.7 |
| 20260902153909 | 82 | 256 | 1.7 | 6.1 | 0.00 | 0.00 | 0.00 | 66 | 1015.7 |
| 20260902153408 | 82 | 246 | 4.3 | 6.1 | 0.00 | 0.00 | 0.00 | 64 | 1015.8 |
| 20260902152908 | 83 | 265 | 5.2 | 7.8 | 0.00 | 0.00 | 0.00 | 66 | 1015.9 |
| 20260902152408 | 84 | 264 | 4.3 | 6.1 | 0.00 | 0.00 | 0.00 | 69 | 1015.8 |
| 20260902151908 | 84 | 257 | 2.6 | 5.2 | 0.00 | 0.00 | 0.00 | 69 | 1015.7 |
| 20260902151408 | 85 | 263 | 1.7 | 4.3 | 0.00 | 0.00 | 0.00 | 68 | 1015.5 |
| 20260902150908 | 85 | 269 | 2.6 | 5.2 | 0.00 | 0.00 | 0.00 | 66 | 1015.5 |
| 20260902150408 | 85 | 233 | 2.6 | 6.1 | 0.00 | 0.00 | 0.00 | 66 | 1015.4 |
| 20260902145908 | 86 | 250 | 2.6 | 5.2 | 0.00 | 0.00 | 0.00 | 69 | 1015.5 |
| 20260902145408 | 86 | 241 | 4.3 | 4.3 | 0.00 | 0.00 | 0.00 | 68 | 1015.3 |
| 20260902144909 | 88 | 236 | 2.6 | 4.3 | 0.00 | 0.00 | 0.00 | 67 | 1015.0 |
| 20260902144409 | 90 | 242 | 1.7 | 4.3 | 0.00 | 0.00 | 0.00 | 53 | 1014.9 |
| 20260902143908 | 90 | 131 | 0.0 | 2.6 | 0.00 | 0.00 | 0.00 | 45 | 1014.8 |
| 20260902143409 | 90 | 90 | 0.9 | 2.6 | 0.00 | 0.00 | 0.00 | 45 | 1014.6 |
| 20260902142908 | 90 | 140 | 0.9 | 2.6 | 0.00 | 0.00 | 0.00 | 45 | 1014.6 |
| 20260902142408 | 90 | 78 | 1.7 | 2.6 | 0.00 | 0.00 | 0.00 | 44 | 1014.6 |
| 20260902141908 | 91 | 77 | 0.9 | 2.6 | 0.00 | 0.00 | 0.00 | 47 | 1014.8 |
| 20260902141408 | 91 | 203 | 0.0 | 1.7 | 0.00 | 0.00 | 0.00 | 50 | 1014.7 |
| 20260902140908 | 91 | 212 | 0.0 | 2.6 | 0.00 | 0.00 | 0.00 | 49 | 1014.7 |
| 20260902140408 | 91 | 214 | 0.9 | 1.7 | 0.00 | 0.00 | 0.00 | 48 | 1014.7 |
| 20260902135906 | 91 | 237 | 0.9 | 1.7 | 0.00 | 0.00 | 0.00 | 46 | 1014.7 |
| 20260902134410 | 91 | 230 | 0.9 | 1.7 | 0.00 | 0.00 | 0.00 | 45 | 1014.8 |
| 20260902133407 | 92 | 138 | 1.7 | 2.6 | 0.00 | 0.00 | 0.00 | 46 | 1014.4 |
| 20260902132409 | 93 | 212 | 1.7 | 2.6 | 0.00 | 0.00 | 0.00 | 43 | 1014.5 |
| 20260902131907 | 93 | 206 | 0.9 | 2.6 | 0.00 | 0.00 | 0.00 | 44 | 1014.2 |
| 20260902131408 | 93 | 198 | 0.9 | 2.6 | 0.00 | 0.00 | 0.00 | 44 | 1014.4 |
| 20260902130908 | 92 | 211 | 1.7 | 2.6 | 0.00 | 0.00 | 0.00 | 46 | 1014.5 |
| 20260902130408 | 92 | 235 | 1.7 | 2.6 | 0.00 | 0.00 | 0.00 | 48 | 1014.4 |
| 20260902125907 | 92 | 224 | 2.6 | 2.6 | 0.00 | 0.00 | 0.00 | 48 | 1014.6 |
| 20260902125408 | 93 | 222 | 1.7 | 4.3 | 0.00 | 0.00 | 0.00 | 46 | 1014.6 |
| 20260902124908 | 93 | 211 | 1.7 | 4.3 | 0.00 | 0.00 | 0.00 | 44 | 1014.7 |
| 20260902124411 | 92 | 227 | 1.7 | 2.6 | 0.00 | 0.00 | 0.00 | 47 | 1014.7 |
| 20260902123906 | 92 | 233 | 2.6 | 2.6 | 0.00 | 0.00 | 0.00 | 46 | 1014.8 |
| 20260902123408 | 92 | 229 | 1.7 | 2.6 | 0.00 | 0.00 | 0.00 | 47 | 1014.8 |
| 20260902122908 | 91 | 219 | 1.7 | 4.3 | 0.00 | 0.00 | 0.00 | 49 | 1014.8 |
| 20260902122408 | 91 | 221 | 2.6 | 4.3 | 0.00 | 0.00 | 0.00 | 49 | 1015.0 |
| 20260902121912 | 91 | 236 | 2.6 | 4.3 | 0.00 | 0.00 | 0.00 | 51 | 1015.0 |
| 20260902121407 | 91 | 244 | 2.6 | 4.3 | 0.00 | 0.00 | 0.00 | 51 | 1015.1 |
| 20260902120908 | 91 | 248 | 2.6 | 2.6 | 0.00 | 0.00 | 0.00 | 50 | 1015.2 |
| 20260902115407 | 91 | 225 | 1.7 | 4.3 | 0.00 | 0.00 | 0.00 | 50 | 1015.3 |
| 20260902114907 | 92 | 229 | 2.6 | 4.3 | 0.00 | 0.00 | 0.00 | 51 | 1015.3 |
| 20260902114408 | 92 | 233 | 1.7 | 2.6 | 0.00 | 0.00 | 0.00 | 48 | 1015.3 |
| 20260902113908 | 92 | 223 | 2.6 | 2.6 | 0.00 | 0.00 | 0.00 | 46 | 1015.3 |
| 20260902113408 | 92 | 221 | 2.6 | 2.6 | 0.00 | 0.00 | 0.00 | 46 | 1015.4 |
| 20260902112908 | 92 | 225 | 2.6 | 2.6 | 0.00 | 0.00 | 0.00 | 46 | 1015.4 |
| 20260902112409 | 92 | 232 | 1.7 | 2.6 | 0.00 | 0.00 | 0.00 | 47 | 1015.5 |
| 20260902111908 | 92 | 216 | 1.7 | 2.6 | 0.00 | 0.00 | 0.00 | 45 | 1015.5 |
| 20260902111408 | 91 | 215 | 1.7 | 2.6 | 0.00 | 0.00 | 0.00 | 47 | 1015.5 |
| 20260902110908 | 91 | 229 | 2.6 | 2.6 | 0.00 | 0.00 | 0.00 | 48 | 1015.6 |
| 20260902110407 | 91 | 225 | 1.7 | 2.6 | 0.00 | 0.00 | 0.00 | 47 | 1015.6 |
| 20260902105408 | 91 | 218 | 1.7 | 2.6 | 0.00 | 0.00 | 0.00 | 48 | 1015.8 |
| 20260902104908 | 90 | 231 | 1.7 | 2.6 | 0.00 | 0.00 | 0.00 | 48 | 1015.8 |
| 20260902104407 | 90 | 225 | 2.6 | 2.6 | 0.00 | 0.00 | 0.00 | 48 | 1015.9 |
| 20260902103908 | 89 | 227 | 2.6 | 2.6 | 0.00 | 0.00 | 0.00 | 49 | 1016.0 |
| 20260902103408 | 89 | 222 | 2.6 | 2.6 | 0.00 | 0.00 | 0.00 | 50 | 1016.1 |
| 20260902102908 | 89 | 228 | 2.6 | 2.6 | 0.00 | 0.00 | 0.00 | 52 | 1016.2 |
| 20260902102408 | 89 | 229 | 1.7 | 2.6 | 0.00 | 0.00 | 0.00 | 55 | 1016.2 |
| 20260902101907 | 88 | 225 | 2.6 | 2.6 | 0.00 | 0.00 | 0.00 | 55 | 1016.2 |
| 20260902101407 | 88 | 220 | 2.6 | 2.6 | 0.00 | 0.00 | 0.00 | 60 | 1016.3 |
| 20260902100908 | 87 | 217 | 2.6 | 4.3 | 0.00 | 0.00 | 0.00 | 60 | 1016.3 |
| 20260902100409 | 87 | 246 | 2.6 | 4.3 | 0.00 | 0.00 | 0.00 | 62 | 1016.4 |
| 20260902095908 | 87 | 223 | 2.6 | 2.6 | 0.00 | 0.00 | 0.00 | 60 | 1016.4 |
| 20260902094908 | 87 | 220 | 1.7 | 2.6 | 0.00 | 0.00 | 0.00 | 60 | 1016.4 |
| 20260902093908 | 86 | 246 | 1.7 | 2.6 | 0.00 | 0.00 | 0.00 | 64 | 1016.3 |
| 20260902093407 | 87 | 247 | 1.7 | 2.6 | 0.00 | 0.00 | 0.00 | 63 | 1016.3 |
| 20260902092407 | 87 | 250 | 1.7 | 2.6 | 0.00 | 0.00 | 0.00 | 65 | 1016.4 |
| 20260902091907 | 86 | 214 | 1.7 | 2.6 | 0.00 | 0.00 | 0.00 | 62 | 1016.4 |
| 20260902091407 | 86 | 223 | 2.6 | 2.6 | 0.00 | 0.00 | 0.00 | 60 | 1016.4 |
| 20260902090908 | 86 | 224 | 2.6 | 2.6 | 0.00 | 0.00 | 0.00 | 62 | 1016.4 |
| 20260902090407 | 86 | 246 | 1.7 | 2.6 | 0.00 | 0.00 | 0.00 | 61 | 1016.4 |
| 20260902085907 | 86 | 235 | 2.6 | 2.6 | 0.00 | 0.00 | 0.00 | 62 | 1016.4 |
| 20260902085408 | 86 | 247 | 2.6 | 2.6 | 0.00 | 0.00 | 0.00 | 59 | 1016.5 |
| 20260902084906 | 86 | 246 | 1.7 | 2.6 | 0.00 | 0.00 | 0.00 | 58 | 1016.5 |
| 20260902084407 | 86 | 263 | 1.7 | 2.6 | 0.00 | 0.00 | 0.00 | 58 | 1016.5 |
| 20260902083908 | 86 | 238 | 1.7 | 2.6 | 0.00 | 0.00 | 0.00 | 59 | 1016.5 |
| 20260902083408 | 85 | 229 | 0.9 | 2.6 | 0.00 | 0.00 | 0.00 | 59 | 1016.5 |
| 20260902082907 | 85 | 248 | 1.7 | 2.6 | 0.00 | 0.00 | 0.00 | 60 | 1016.5 |
| 20260902082407 | 85 | 230 | 1.7 | 2.6 | 0.00 | 0.00 | 0.00 | 60 | 1016.5 |
| 20260902081410 | 85 | 236 | 1.7 | 2.6 | 0.00 | 0.00 | 0.00 | 56 | 1016.4 |
| 20260901193408 | 88 | 12 | 0.9 | 2.6 | 0.00 | 0.00 | 0.00 | 39 | 1015.9 |
| 20260901191908 | 88 | 140 | 0.0 | 1.7 | 0.00 | 0.00 | 0.00 | 44 | 1015.9 |
| 20260901191408 | 88 | 139 | 1.7 | 2.6 | 0.00 | 0.00 | 0.00 | 45 | 1015.8 |
| 20260901190908 | 88 | 63 | 1.7 | 2.6 | 0.00 | 0.00 | 0.00 | 40 | 1015.7 |
| 20260901190408 | 88 | 129 | 0.9 | 2.6 | 0.00 | 0.00 | 0.00 | 46 | 1015.6 |
| 20260901185908 | 89 | 128 | 0.9 | 2.6 | 0.00 | 0.00 | 0.00 | 44 | 1015.5 |
| 20260901185408 | 89 | 99 | 0.9 | 1.7 | 0.00 | 0.00 | 0.00 | 42 | 1015.5 |
| 20260901184908 | 89 | 94 | 0.9 | 2.6 | 0.00 | 0.00 | 0.00 | 37 | 1015.5 |
| 20260901184407 | 89 | 336 | 0.9 | 1.7 | 0.00 | 0.00 | 0.00 | 37 | 1015.4 |
| 20260901183908 | 89 | 285 | 0.0 | 1.7 | 0.00 | 0.00 | 0.00 | 39 | 1015.4 |
| 20260901183408 | 89 | 318 | 0.0 | 2.6 | 0.00 | 0.00 | 0.00 | 38 | 1015.4 |
| 20260901182909 | 89 | 356 | 0.9 | 2.6 | 0.00 | 0.00 | 0.00 | 39 | 1015.3 |
| 20260901181408 | 90 | 319 | 1.7 | 2.6 | 0.00 | 0.00 | 0.00 | 39 | 1015.2 |
| 20260901180410 | 90 | 340 | 0.0 | 2.6 | 0.00 | 0.00 | 0.00 | 39 | 1015.1 |
| 20260901175908 | 90 | 321 | 1.7 | 2.6 | 0.00 | 0.00 | 0.00 | 39 | 1015.0 |
| 20260901175408 | 90 | 255 | 0.9 | 1.7 | 0.00 | 0.00 | 0.00 | 40 | 1014.9 |
| 20260901174909 | 90 | 304 | 0.0 | 1.7 | 0.00 | 0.00 | 0.00 | 41 | 1014.9 |
| 20260901174408 | 90 | 291 | 0.9 | 2.6 | 0.00 | 0.00 | 0.00 | 42 | 1014.8 |
| 20260901173908 | 90 | 292 | 0.9 | 2.6 | 0.00 | 0.00 | 0.00 | 42 | 1014.7 |
| 20260901173409 | 90 | 337 | 0.9 | 2.6 | 0.00 | 0.00 | 0.00 | 42 | 1014.5 |
| 20260901172909 | 90 | 307 | 0.9 | 2.6 | 0.00 | 0.00 | 0.00 | 42 | 1014.5 |